Change the Weather History Date:

Tuesday, October 30, 2012

  Actual Average Record
Temperature  
Mean Temperature 50 °F 61 °F  
Max Temperature 66 °F 73 °F 89 °F (1927)
Min Temperature 34 °F 49 °F 27 °F (1910)
Degree Days  
Heating Degree Days 15 6  
Month to date heating degree days 104 94  
Since 1 July heating degree days 105 101  
Cooling Degree Days 0 2  
Month to date cooling degree days 73 104  
Year to date cooling degree days 2510 2230  
Moisture  
Dew Point 34 °F    
Average Humidity 59    
Maximum Humidity 89    
Minimum Humidity 29    
Precipitation  
Precipitation 0.00 in 0.12 in 1.65 in (1949)
Month to date precipitation 1.05 3.79  
Year to date precipitation 57.88 44.10  
Sea Level Pressure  
Sea Level Pressure 30.04 in    
Wind  
Wind Speed 4 mph (NW)    
Max Wind Speed 16 mph    
Max Gust Speed 21 mph    
Visibility 10 miles    
Events      
T = Trace of Precipitation, MM = Missing Value Source: NWS Daily Summary

Daily Weather History Graph

Daily Weather History Graph

Search for Another Location

Airport or City:

Trip Planner

Search our weather history database for the weather conditions in past years. The results will help you decide how hot, cold, wet, or windy it might be!

Date:

Astronomy

Oct. 30, 2012 Rise Set
Actual Time 7:16 AM CDT 6:11 PM CDT
Civil Twilight 6:50 AM CDT 6:36 PM CDT
Nautical Twilight 6:21 AM CDT 7:05 PM CDT
Astronomical Twilight 5:53 AM CDT 7:34 PM CDT
Moon 6:45 PM CDT (10/30) 7:58 AM CDT (10/30)
Length of Visible Light 11h 45m
Length of Day
10h 55m
Full, 99% of the Moon is Illuminated
Oct 30
Full
Nov 6
Last Quarter
Nov 13
New
Nov 20
First Quarter
Nov 28
Full

Hourly Weather History & Observations

Time (CDT) Temp. Windchill Dew Point Humidity Pressure Visibility Wind Dir Wind Speed Gust Speed Precip Events Conditions
12:54 AM 42.1 °F 39.2 °F 32.0 °F 67% 30.10 in 10.0 mi WNW 4.6 mph - N/A   Clear
1:54 AM 37.0 °F - 32.0 °F 82% 30.09 in 10.0 mi Calm Calm - N/A   Clear
2:54 AM 36.0 °F - 32.0 °F 86% 30.08 in 10.0 mi Calm Calm - N/A   Clear
3:54 AM 36.0 °F - 30.9 °F 82% 30.07 in 10.0 mi Calm Calm - N/A   Clear
4:54 AM 35.1 °F - 30.9 °F 85% 30.07 in 10.0 mi Calm Calm - N/A   Clear
5:54 AM 37.0 °F - 32.0 °F 82% 30.08 in 10.0 mi Calm Calm - N/A   Clear
6:54 AM 37.9 °F - 32.0 °F 79% 30.08 in 10.0 mi Calm Calm - N/A   Clear
7:54 AM 37.0 °F - 33.1 °F 86% 30.09 in 10.0 mi Calm Calm - N/A   Clear
8:54 AM 48.0 °F - 33.1 °F 56% 30.09 in 10.0 mi NW 5.8 mph - N/A   Clear
9:54 AM 53.1 °F - 30.9 °F 43% 30.08 in 10.0 mi NNW 8.1 mph - N/A   Clear
10:54 AM 57.0 °F - 30.0 °F 36% 30.09 in 10.0 mi WNW 11.5 mph - N/A   Clear
11:54 AM 61.0 °F - 30.9 °F 32% 30.07 in 10.0 mi WNW 12.7 mph - N/A   Clear
12:54 PM 63.0 °F - 30.9 °F 30% 30.04 in 10.0 mi NW 9.2 mph 18.4 mph N/A   Clear
1:54 PM 64.0 °F - 32.0 °F 30% 30.02 in 10.0 mi NW 9.2 mph 20.7 mph N/A   Clear
2:54 PM 64.9 °F - 32.0 °F 29% 29.99 in 10.0 mi WNW 9.2 mph 16.1 mph N/A   Clear
3:54 PM 66.0 °F - 33.1 °F 29% 29.98 in 10.0 mi West 9.2 mph - N/A   Clear
4:54 PM 64.9 °F - 34.0 °F 32% 29.97 in 10.0 mi WNW 9.2 mph - N/A   Clear
5:54 PM 62.1 °F - 35.1 °F 37% 29.97 in 10.0 mi NW 5.8 mph - N/A   Clear
6:54 PM 54.0 °F - 37.9 °F 55% 29.98 in 10.0 mi Calm Calm - N/A   Clear
7:54 PM 50.0 °F - 39.0 °F 66% 29.99 in 10.0 mi Calm Calm - N/A   Clear
8:54 PM 52.0 °F - 39.0 °F 61% 30.00 in 10.0 mi Calm Calm - N/A   Clear
9:54 PM 48.9 °F - 39.9 °F 71% 30.00 in 10.0 mi Calm Calm - N/A   Clear
10:54 PM 48.9 °F - 39.9 °F 71% 30.01 in 10.0 mi Calm Calm - N/A   Clear
11:54 PM 51.1 °F - 39.0 °F 63% 29.99 in 10.0 mi Calm Calm - N/A   Scattered Clouds